{"data":{"norad_id":51812,"epoch":"2026-05-24T22:40:52.426272Z","epoch_age_seconds":73814,"freshness":"FRESH","line1":"1 51812U 22017AW  26144.94505123  .00003282  00000+0  22427-3 0  9999","line2":"2 51812  53.2130 346.7937 0001399  94.8449 265.2703 15.08828945235591","mean_motion":15.08828945,"eccentricity":0.0001399,"inclination_deg":53.213,"raan_deg":346.7937,"arg_perigee_deg":94.8449,"mean_anomaly_deg":265.2703,"bstar":0.00022427,"rev_number":23559,"period_min":95.438253936731,"perigee_km":538.80936368903,"apogee_km":540.74499607657,"semimajor_km":6917.9141798828,"source":"CELESTRAK","updated_at":"2026-05-25T13:38:16.958337Z"}}